When you browse on this site, cookies collect data to enhance your experience and personalize the content and advertising you see.
Visit our Privacy Policy to learn more. By continuing to use the site, you agree to this use of cookies and data.
  • En España
  • Lista de países
  • Para 7 días
  • Temperatura del agua
  • Mapa Satelital
  • El tiempo en el mapa
  • Informadores
  • user-avatar
    Iniciar sesión

    Tiempo cada hora Kumasi

    Hoy, 23 Enero, Miércoles

    Tiempo Temperatura Precipitaciones Viento Presión Humedad
    00:00 +31°C° 0 mm 3 mps 756 mmHg 73%
    01:00 +30°C° 0 mm 3 mps 756 mmHg 75%
    02:00 +30°C° 0 mm 3 mps 755 mmHg 77%
    03:00 +30°C° 0 mm 3 mps 755 mmHg 80%
    04:00 +29°C° 0 mm 3 mps 755 mmHg 81%
    05:00 +29°C° 0 mm 3 mps 755 mmHg 83%
    06:00 +29°C° 0 mm 2 mps 756 mmHg 84%
    07:00 +30°C° 0 mm 2 mps 756 mmHg 77%
    08:00 +31°C° 0 mm 2 mps 756 mmHg 71%
    09:00 +34°C° 0 mm 2 mps 757 mmHg 64%
    10:00 +35°C° 0 mm 2 mps 756 mmHg 56%
    11:00 +37°C° 0 mm 3 mps 756 mmHg 49%
    12:00 +39°C° 0 mm 3 mps 756 mmHg 41%
    13:00 +39°C° 0 mm 3 mps 755 mmHg 42%
    14:00 +38°C° 0 mm 4 mps 754 mmHg 44%
    15:00 +39°C° 0 mm 5 mps 753 mmHg 45%
    16:00 +36°C° 0 mm 5 mps 754 mmHg 53%
    17:00 +35°C° 0 mm 5 mps 754 mmHg 60%
    18:00 +33°C° 0 mm 5 mps 754 mmHg 67%
    19:00 +33°C° 0 mm 5 mps 754 mmHg 69%
    20:00 +32°C° 0 mm 5 mps 755 mmHg 70%
    21:00 +32°C° 0 mm 4 mps 756 mmHg 72%
    22:00 +32°C° 0 mm 4 mps 756 mmHg 73%
    23:00 +30°C° 0 mm 4 mps 756 mmHg 73%

    Mañana, 24 Enero, Jueves

    Tiempo Temperatura Precipitaciones Viento Presión Humedad
    00:00 +30°C° 0 mm 4 mps 756 mmHg 74%
    01:00 +30°C° 0 mm 4 mps 756 mmHg 75%
    02:00 +30°C° 0 mm 3 mps 755 mmHg 75%
    03:00 +30°C° 0 mm 3 mps 755 mmHg 76%
    04:00 +29°C° 0.7 mm 3 mps 755 mmHg 78%
    05:00 +29°C° 0.7 mm 3 mps 755 mmHg 81%
    06:00 +29°C° 0.7 mm 3 mps 755 mmHg 83%
    07:00 +30°C° 0 mm 3 mps 755 mmHg 77%
    08:00 +31°C° 0 mm 3 mps 756 mmHg 71%
    09:00 +33°C° 0 mm 3 mps 757 mmHg 65%
    10:00 +35°C° 0 mm 3 mps 756 mmHg 57%
    11:00 +36°C° 0 mm 3 mps 756 mmHg 50%
    12:00 +38°C° 0 mm 3 mps 756 mmHg 43%
    13:00 +38°C° 0.2 mm 4 mps 755 mmHg 44%
    14:00 +37°C° 0.2 mm 4 mps 754 mmHg 45%
    15:00 +37°C° 0.2 mm 5 mps 753 mmHg 46%
    16:00 +36°C° 0.1 mm 5 mps 754 mmHg 51%
    17:00 +35°C° 0.1 mm 5 mps 754 mmHg 56%
    18:00 +34°C° 0.1 mm 5 mps 754 mmHg 61%
    19:00 +33°C° 0 mm 5 mps 755 mmHg 63%
    20:00 +33°C° 0 mm 4 mps 755 mmHg 65%
    21:00 +32°C° 0 mm 4 mps 756 mmHg 67%
    22:00 +32°C° 0 mm 4 mps 756 mmHg 69%
    23:00 +30°C° 0 mm 4 mps 756 mmHg 71%

    Pasado mañana, 25 Enero, Viernes

    Tiempo Temperatura Precipitaciones Viento Presión Humedad
    00:00 +30°C° 0 mm 3 mps 755 mmHg 74%
    01:00 +30°C° 0 mm 3 mps 755 mmHg 75%
    02:00 +29°C° 0 mm 3 mps 755 mmHg 76%
    03:00 +29°C° 0 mm 2 mps 754 mmHg 77%
    04:00 +29°C° 0 mm 2 mps 754 mmHg 78%
    05:00 +29°C° 0 mm 2 mps 755 mmHg 79%
    06:00 +29°C° 0 mm 2 mps 755 mmHg 80%
    07:00 +30°C° 0 mm 2 mps 756 mmHg 73%
    08:00 +31°C° 0 mm 3 mps 756 mmHg 66%
    09:00 +34°C° 0 mm 3 mps 757 mmHg 60%
    10:00 +35°C° 0 mm 3 mps 756 mmHg 53%
    11:00 +37°C° 0 mm 3 mps 756 mmHg 47%
    12:00 +38°C° 0 mm 3 mps 756 mmHg 41%
    13:00 +38°C° 0 mm 3 mps 755 mmHg 41%
    14:00 +38°C° 0 mm 4 mps 754 mmHg 41%
    15:00 +40°C° 0 mm 4 mps 753 mmHg 42%
    16:00 +37°C° 0 mm 5 mps 753 mmHg 49%
    17:00 +35°C° 0 mm 5 mps 753 mmHg 56%
    18:00 +33°C° 0 mm 5 mps 753 mmHg 63%
    19:00 +33°C° 0 mm 5 mps 754 mmHg 65%
    20:00 +32°C° 0 mm 5 mps 755 mmHg 67%
    21:00 +32°C° 0 mm 4 mps 756 mmHg 69%
    22:00 +32°C° 0 mm 4 mps 756 mmHg 71%
    23:00 +30°C° 0 mm 4 mps 756 mmHg 73%

    26 Enero, Sábado

    Tiempo Temperatura Precipitaciones Viento Presión Humedad
    00:00 +30°C° 0 mm 3 mps 755 mmHg 75%
    01:00 +30°C° 0 mm 3 mps 755 mmHg 76%
    02:00 +30°C° 0 mm 3 mps 755 mmHg 77%
    03:00 +30°C° 0 mm 3 mps 754 mmHg 79%
    04:00 +30°C° 0 mm 3 mps 755 mmHg 78%
    05:00 +30°C° 0 mm 3 mps 755 mmHg 78%
    06:00 +30°C° 0 mm 3 mps 755 mmHg 78%
    07:00 +30°C° 0 mm 3 mps 756 mmHg 73%
    08:00 +31°C° 0 mm 3 mps 756 mmHg 69%
    09:00 +33°C° 0 mm 3 mps 757 mmHg 64%
    10:00 +35°C° 0 mm 3 mps 756 mmHg 56%
    11:00 +37°C° 0 mm 3 mps 756 mmHg 48%
    12:00 +39°C° 0 mm 3 mps 755 mmHg 41%
    13:00 +39°C° 0 mm 3 mps 755 mmHg 39%
    14:00 +40°C° 0 mm 3 mps 754 mmHg 37%
    15:00 +40°C° 0 mm 3 mps 753 mmHg 34%
    16:00 +38°C° 0 mm 4 mps 753 mmHg 45%
    17:00 +36°C° 0 mm 5 mps 753 mmHg 56%
    18:00 +34°C° 0 mm 6 mps 754 mmHg 67%
    19:00 +33°C° 0 mm 6 mps 754 mmHg 69%
    20:00 +33°C° 0 mm 5 mps 755 mmHg 71%
    21:00 +32°C° 0 mm 5 mps 756 mmHg 73%
    22:00 +32°C° 0 mm 5 mps 756 mmHg 74%
    23:00 +32°C° 0 mm 5 mps 756 mmHg 75%

    27 Enero, Domingo

    Tiempo Temperatura Precipitaciones Viento Presión Humedad
    00:00 +30°C° 0 mm 4 mps 756 mmHg 76%
    01:00 +30°C° 0 mm 4 mps 755 mmHg 76%
    02:00 +30°C° 0 mm 4 mps 755 mmHg 76%
    03:00 +30°C° 0 mm 4 mps 755 mmHg 76%
    04:00 +30°C° 0 mm 4 mps 755 mmHg 76%
    05:00 +30°C° 0 mm 3 mps 755 mmHg 76%
    06:00 +30°C° 0 mm 3 mps 755 mmHg 76%
    07:00 +31°C° 0 mm 3 mps 756 mmHg 71%
    08:00 +33°C° 0 mm 3 mps 756 mmHg 66%
    09:00 +34°C° 0 mm 3 mps 757 mmHg 60%
    10:00 +36°C° 0 mm 3 mps 756 mmHg 54%
    11:00 +37°C° 0 mm 3 mps 756 mmHg 47%
    12:00 +39°C° 0 mm 3 mps 755 mmHg 40%
    13:00 +40°C° 0.2 mm 4 mps 754 mmHg 41%
    14:00 +40°C° 0.2 mm 4 mps 753 mmHg 41%
    15:00 +40°C° 0.2 mm 5 mps 753 mmHg 42%
    16:00 +37°C° 0 mm 5 mps 753 mmHg 50%
    17:00 +35°C° 0 mm 6 mps 753 mmHg 59%
    18:00 +33°C° 0 mm 6 mps 754 mmHg 67%
    19:00 +33°C° 0 mm 6 mps 754 mmHg 68%
    20:00 +32°C° 0 mm 5 mps 755 mmHg 69%
    21:00 +32°C° 0 mm 5 mps 756 mmHg 70%
    22:00 +32°C° 0 mm 5 mps 756 mmHg 72%
    23:00 +32°C° 0 mm 4 mps 756 mmHg 74%

    28 Enero, Lunes

    Tiempo Temperatura Precipitaciones Viento Presión Humedad
    00:00 +30°C° 0 mm 4 mps 756 mmHg 76%
    01:00 +30°C° 0 mm 4 mps 755 mmHg 76%
    02:00 +30°C° 0 mm 4 mps 755 mmHg 77%
    03:00 +30°C° 0 mm 3 mps 754 mmHg 78%
    04:00 +29°C° 0 mm 3 mps 755 mmHg 78%
    05:00 +29°C° 0 mm 3 mps 755 mmHg 79%
    06:00 +29°C° 0 mm 3 mps 755 mmHg 79%
    07:00 +30°C° 0 mm 3 mps 756 mmHg 73%
    08:00 +32°C° 0 mm 4 mps 756 mmHg 68%
    09:00 +34°C° 0 mm 4 mps 756 mmHg 62%
    10:00 +35°C° 0.2 mm 4 mps 756 mmHg 57%
    11:00 +36°C° 0.2 mm 4 mps 755 mmHg 51%
    12:00 +37°C° 0.2 mm 4 mps 755 mmHg 46%
    13:00 +37°C° 0.5 mm 4 mps 754 mmHg 47%
    14:00 +37°C° 0.5 mm 4 mps 754 mmHg 48%
    15:00 +37°C° 0.5 mm 5 mps 753 mmHg 49%
    16:00 +36°C° 0.6 mm 5 mps 753 mmHg 54%
    17:00 +35°C° 0.6 mm 4 mps 753 mmHg 59%
    18:00 +33°C° 0.6 mm 4 mps 754 mmHg 64%
    19:00 +33°C° 0 mm 4 mps 754 mmHg 66%
    20:00 +32°C° 0 mm 4 mps 755 mmHg 69%
    21:00 +32°C° 0 mm 4 mps 755 mmHg 71%
    22:00 +32°C° 0 mm 4 mps 755 mmHg 72%
    23:00 +30°C° 0 mm 3 mps 755 mmHg 74%
    Mostrar más